This demonstration page uses our WeatherBlox Daily Observations layout. Learn more.

Left ArrowRight Arrow

34.74481, -87.66753

Hourly Observations for May 11, 2019

Temp ( °F °C ) Dew Point ( °F °C ) Humidity (%) Winds ( mph kmh ) Pressure ( in mb ) Visibility ( mi km ) Precip ( " mm )
12:14 am 00:14 Cloudy 67 19.4 64 17.8 91 91 NNE 6 9 30.01 1016 10 16 0.00 0.00
12:35 am 00:35 Cloudy 67 19.4 64 17.8 91 91 NE 8 13 30.00 1016 10 16 0.00 0.00
12:53 am 00:53 Cloudy 66 18.9 64 17.8 93 93 ENE 6 9 30.00 1016 10 16 0.00 0.00
1:03 am 01:03 Cloudy 66 18.9 64 17.8 93 93 NE 5 7 30.00 1016 10 16 0.00 0.00
1:42 am 01:42 Cloudy 66 18.9 63 17.2 90 90 NNE 6 9 29.98 1015 10 16 0.00 0.00
1:50 am 01:50 Cloudy 66 19 63 17 88 88 Calm 29.99 1016 10 16 0.00 0.00
1:53 am 01:53 Cloudy 66 18.9 63 17.2 90 90 Calm 29.98 1015 10 16 0.00 0.00
2:53 am 02:53 Cloudy 65 18.3 62 16.7 90 90 NE 6 9 29.96 1015 10 16 0.00 0.00
3:53 am 03:53 Cloudy 65 18.3 62 16.7 90 90 NE 8 13 29.94 1014 10 16 0.00 0.00
4:53 am 04:53 Cloudy 64 17.8 62 16.7 93 93 NE 7 11 29.93 1014 10 16 0.00 0.00
5:53 am 05:53 Cloudy 64 17.8 62 16.7 93 93 ENE 3 6 29.94 1014 10 16 0.00 0.00
6:53 am 06:53 Cloudy 64 17.8 61 16.1 90 90 NE 5 7 29.94 1014 10 16 0.00 0.00
7:53 am 07:53 Cloudy 65 18.3 62 16.7 90 90 Calm 29.95 1014 10 16 0.00 0.00
8:53 am 08:53 Cloudy 67 19.4 63 17.2 87 87 Calm 29.95 1014 10 16 0.00 0.00
9:53 am 09:53 Cloudy 68 20 64 17.8 87 87 ESE 3 6 29.93 1014 10 16 0.00 0.00
10:36 am 10:36 Cloudy 68 20 65 18.3 90 90 Calm 29.93 1013 10 16 0.08 2.03
10:53 am 10:53 Cloudy 68 20 65 18.3 90 90 E 3 6 29.91 1013 10 16 0.08 2.03
11:53 am 11:53 Cloudy 71 21.7 67 19.4 87 87 SE 6 9 29.89 1012 10 16 0.00 0.00
12:37 pm 12:37 Cloudy 74 23.3 68 20 82 82 SE 3 6 29.87 1012 10 16 0.00 0.00
12:51 pm 12:51 Cloudy with Light Rain 73 23 68 20 83 83 Calm 29.86 1011 10 16 0.00 0.03
12:53 pm 12:53 Cloudy with Light Rain 73 22.8 68 20 84 84 Calm 29.86 1011 10 16 0.00 0.03
1:53 pm 13:53 Cloudy with Heavy Rain 72 22.2 70 21.1 94 94 Calm 29.85 1011 5 8 0.09 2.29
2:01 pm 14:01 Cloudy with Light Rain 73 22.8 70 21.1 90 90 W 3 6 29.84 1011 9 14 0.00 0.03
2:53 pm 14:53 Mostly Cloudy 76 24.4 71 21.7 85 85 S 5 7 29.79 1009 10 16 0.00 0.03
3:53 pm 15:53 Cloudy 77 25 71 21.7 82 82 WSW 5 7 29.77 1008 10 16 0.00 0.00
4:53 pm 16:53 Cloudy with Strong Thunderstorms 75 23.9 70 21.1 84 84 SW 13 20 29.78 1008 4 6 0.10 2.54
5:16 pm 17:16 Cloudy with Nearby Thunderstorms 72 22.2 69 20.6 91 91 WSW 12 19 29.79 1009 3 5 0.30 7.62
5:25 pm 17:25 Cloudy with Heavy Rain 72 22.2 69 20.6 91 91 W 14 22 29.79 1009 3 5 0.46 11.68
5:35 pm 17:35 Cloudy with Rain 72 22.2 69 20.6 91 91 SW 8 13 29.79 1009 5 8 0.54 13.72
5:37 pm 17:37 Cloudy with Light Rain 72 22.2 70 21.1 94 94 WSW 8 13 29.79 1009 6 10 0.55 13.97
5:46 pm 17:46 Cloudy with Light Rain 72 22.2 70 21.1 94 94 WSW 5 7 29.79 1009 10 16 0.55 13.97
5:48 pm 17:48 Cloudy with Light Rain 72 22 70 21 94 94 W 6 9 29.79 1009 10 16 0.55 13.97
5:53 pm 17:53 Cloudy 72 22.2 70 21.1 94 94 W 6 9 29.79 1009 10 16 0.55 13.97
6:03 pm 18:03 Cloudy with Rain 72 22.2 70 21.1 94 94 WNW 7 11 29.78 1009 7 11 0.02 0.51
6:39 pm 18:39 Cloudy with Rain 72 22.2 69 20.6 91 91 SW 6 9 29.78 1009 9 14 0.04 1.02
6:50 pm 18:50 Cloudy 72 22 70 21 94 94 WSW 5 7 29.78 1009 10 16 0.04 1.02
6:53 pm 18:53 Cloudy with Light Rain 72 22.2 69 20.6 91 91 SW 5 7 29.78 1009 10 16 0.05 1.27
7:45 pm 19:45 Cloudy with Light Rain 71 21.7 69 20.6 94 94 W 7 11 29.79 1009 10 16 0.01 0.25
7:53 pm 19:53 Cloudy 71 21.7 69 20.6 94 94 WSW 7 11 29.79 1009 10 16 0.01 0.25
8:31 pm 20:31 Cloudy 70 21.1 68 20 93 93 WSW 8 13 29.81 1009 10 16 0.00 0.00
8:41 pm 20:41 Cloudy 70 21.1 68 20 93 93 WSW 7 11 29.82 1010 10 16 0.00 0.00
8:53 pm 20:53 Cloudy 70 21.1 68 20 93 93 SW 7 11 29.81 1010 10 16 0.00 0.00
9:04 pm 21:04 Cloudy 70 21.1 68 20 93 93 SW 7 11 29.82 1010 10 16 0.00 0.00
9:33 pm 21:33 Cloudy with Light Rain 69 20.6 67 19.4 93 93 W 10 17 29.82 1010 10 16 0.00 0.03
9:53 pm 21:53 Cloudy 69 20.6 67 19.4 93 93 W 12 19 29.82 1010 10 16 0.00 0.03
10:28 pm 22:28 Mostly Cloudy 68 20 66 18.9 93 93 W 6 9 29.82 1010 10 16 0.00 0.00
10:53 pm 22:53 Cloudy 69 20.6 66 18.9 90 90 W 8 13 29.82 1010 10 16 0.00 0.00
11:31 pm 23:31 Cloudy 68 20 65 18.3 90 90 W 8 13 29.81 1009 10 16 0.00 0.00
11:49 pm 23:49 Cloudy 68 20 64 18 88 88 WSW 8 13 29.80 1009 10 16 0.01 0.25
11:53 pm 23:53 Cloudy 68 20 65 18.3 90 90 WSW 9 15 29.80 1009 10 16 0.01 0.25

Powered by AerisWeather